STARLINK-11160 [DTC] (60125 NORAD) Tracking and Keplerian Element Data

This shows tracking and keplerian element data for the satellite.

Feedback or suggestion? Click here.




ElementValue
Catalog60125
NameSTARLINK-11160 [DTC]
Epoch Orbit1850
Epoch Day286.56867905
Epoch Year2024
RAAN230.6282
Inclination53.1562
Eccentricity3.8E-05
Argument of Perigee100.0629
Mean Anonmoly260.0432
Mean Motion15.69742899
Decay Rate0.00011064
L11 60125U 24118N 24286.56867905 .00011064 00000+0 95922-4 0 9990
L22 60125 53.1562 230.6282 0000380 100.0629 260.0432 15.69742899 18501



Live tracking and technical data element details for STARLINK-11160 [DTC] (NORAD 60125). STARLINK-11160 [DTC] can be tracked NOW for your location showing map with azimuth and elevation plus other details from your city location.







IsCatalogInMostPopularTable: catalog: 60125, numindb: 6
Update: records affected: 1



GetName: 60125 STARLINK-11160 [DTC]

Hit Count: updated at: Thu, 23 Jan 2025 15:04:30 GMT